Medford, OR

8:48 AM PDT on May 24, 2017 (GMT -0700)
Rogue Valley International-Medford

Weather History for KMFR - August, 2014

Change the Weather History Date:

Sunday, August 31, 2014

  Actual Average Record
Temperature  
Mean Temperature 71 °F 71 °F  
Max Temperature 84 °F 88 °F 104 °F (1998)
Min Temperature 58 °F 54 °F 41 °F (1932)
Degree Days  
Heating Degree Days 0 0  
Month to date heating degree days 0 0  
Since 1 June heating degree days 22 64  
Since 1 July heating degree days 0 10  
Cooling Degree Days 6 6  
Month to date cooling degree days 376 275  
Year to date cooling degree days 1014 707  
Since 1 June cooling degree days 958 669  
Growing Degree Days 21 (Base 50)    
Moisture  
Dew Point 47 °F    
Average Humidity 47    
Maximum Humidity 72    
Minimum Humidity 22    
Precipitation  
Precipitation 0.00 in 0.02 in 0.20 in (1944)
Month to date precipitation 0.63 0.40  
Year to date precipitation 11.39 10.14  
Snow  
Snow 0.00 in 0.00 in - ()
Month to date snowfall 0.0 0.0  
Since 1 July snowfall 0.0 0.0  
Snow Depth 0.00 in    
Sea Level Pressure  
Sea Level Pressure 30.01 in    
Wind  
Wind Speed 4 mph (NNE)    
Max Wind Speed 16 mph    
Max Gust Speed 21 mph    
Visibility 10 miles    
Events      
T = Trace of Precipitation, MM = Missing Value Source: NWS Daily Summary

Daily Weather History Graph

Daily Weather History Graph

Search for Another Location

Airport or City:

Trip Planner

Search our weather history database for the weather conditions in past years. The results will help you decide how hot, cold, wet, or windy it might be!

Date:

Astronomy

Aug. 31, 2014 Rise Set
Actual Time 6:35 AM PDT 7:46 PM PDT
Civil Twilight 6:06 AM PDT 8:15 PM PDT
Nautical Twilight 5:32 AM PDT 8:50 PM PDT
Astronomical Twilight 4:55 AM PDT 9:26 PM PDT
Moon 12:35 PM PDT (8/31) 10:58 PM PDT (8/31)
Length of Visible Light 14h 09m
Length of Day
13h 11m
Waxing Crescent, 33% of the Moon is Illuminated
Aug 31
Waxing Crescent
Sep 2
First Quarter
Sep 8
Full
Sep 15
Last Quarter
Sep 23
New

Hourly Weather History & Observations

Time (PDT) Temp. Dew Point Humidity Pressure Visibility Wind Dir Wind Speed Gust Speed Precip Events Conditions
12:53 AM 64.0 °F 51.1 °F 63% 29.99 in 10.0 mi ENE 3.5 mph - N/A   Mostly Cloudy
1:53 AM 64.0 °F 51.1 °F 63% 30.00 in 10.0 mi ENE 4.6 mph - N/A   Overcast
2:53 AM 63.0 °F 50.0 °F 63% 30.00 in 10.0 mi North 3.5 mph - N/A   Clear
3:53 AM 60.1 °F 50.0 °F 69% 30.00 in 10.0 mi Variable 3.5 mph - N/A   Partly Cloudy
4:53 AM 60.1 °F 50.0 °F 69% 30.01 in 10.0 mi North 5.8 mph - N/A   Mostly Cloudy
5:53 AM 59.0 °F 50.0 °F 72% 30.03 in 10.0 mi NNE 3.5 mph - N/A   Mostly Cloudy
6:53 AM 59.0 °F 50.0 °F 72% 30.05 in 10.0 mi Calm Calm - N/A   Mostly Cloudy
7:53 AM 59.0 °F 50.0 °F 72% 30.06 in 10.0 mi Calm Calm - N/A   Mostly Cloudy
8:53 AM 62.1 °F 50.0 °F 65% 30.06 in 10.0 mi Calm Calm - N/A   Scattered Clouds
9:53 AM 66.0 °F 48.9 °F 54% 30.07 in 10.0 mi Calm Calm - N/A   Clear
10:53 AM 69.1 °F 50.0 °F 51% 30.06 in 10.0 mi ENE 4.6 mph - N/A   Clear
11:53 AM 71.1 °F 46.9 °F 42% 30.05 in 10.0 mi Calm Calm - N/A   Clear
12:53 PM 75.0 °F 46.0 °F 36% 30.03 in 10.0 mi East 4.6 mph - N/A   Clear
1:53 PM 78.1 °F 44.1 °F 30% 30.02 in 10.0 mi Variable 3.5 mph - N/A   Clear
2:53 PM 80.1 °F 42.1 °F 26% 29.99 in 10.0 mi Variable 3.5 mph - N/A   Partly Cloudy
3:53 PM 81.0 °F 41.0 °F 24% 29.96 in 10.0 mi Calm Calm - N/A   Clear
4:53 PM 82.9 °F 39.9 °F 22% 29.95 in 10.0 mi Variable 4.6 mph - N/A   Partly Cloudy
5:53 PM 82.0 °F 39.0 °F 22% 29.95 in 10.0 mi NNW 12.7 mph - N/A   Partly Cloudy
6:53 PM 80.6 °F 44.6 °F 28% 29.99 in 10.0 mi North 12.7 mph - N/A   Clear
7:53 PM 75.9 °F 46.0 °F 35% 29.98 in 10.0 mi North 9.2 mph - N/A   Clear
8:53 PM 73.0 °F 46.0 °F 38% 30.00 in 10.0 mi North 6.9 mph - N/A   Clear
9:53 PM 70.0 °F 46.0 °F 42% 30.01 in 10.0 mi Calm Calm - N/A   Clear
10:53 PM 66.9 °F 46.0 °F 47% 30.01 in 10.0 mi NE 5.8 mph - N/A   Clear
11:53 PM 64.9 °F 46.0 °F 50% 30.02 in 10.0 mi Calm Calm - N/A   Clear